| time (UTC) | temp F | wind direction | speed MPH | gust MPH | rain 1hr in | rain 24hr in | rain mn in | humidity % | barometer mb |
| 20260906235027 | 59 | 267 | 3.0 | 13.0 | 0.00 | 0.21 | 0.21 | 77 | 1016.8 |
| 20260906234535 | 59 | 271 | 4.0 | 15.0 | 0.00 | 0.21 | 0.21 | 78 | 1016.9 |
| 20260906234027 | 59 | 260 | 6.0 | 16.0 | 0.00 | 0.21 | 0.21 | 78 | 1016.8 |
| 20260906233527 | 59 | 246 | 5.0 | 16.0 | 0.00 | 0.21 | 0.21 | 78 | 1016.8 |
| 20260906233026 | 59 | 257 | 3.0 | 15.0 | 0.00 | 0.21 | 0.21 | 79 | 1016.8 |
| 20260906232526 | 59 | 255 | 5.0 | 14.0 | 0.00 | 0.21 | 0.21 | 79 | 1016.8 |
| 20260906232027 | 59 | 191 | 5.0 | 15.0 | 0.00 | 0.21 | 0.21 | 79 | 1016.8 |
| 20260906231526 | 59 | 256 | 7.0 | 15.0 | 0.00 | 0.21 | 0.21 | 79 | 1016.7 |
| 20260906231027 | 59 | 275 | 8.0 | 15.0 | 0.00 | 0.21 | 0.21 | 79 | 1016.8 |
| 20260906230528 | 59 | 244 | 7.0 | 14.0 | 0.00 | 0.21 | 0.21 | 78 | 1016.8 |
| 20260906230025 | 59 | 261 | 7.0 | 13.0 | 0.00 | 0.21 | 0.21 | 78 | 1016.8 |
| 20260906225525 | 60 | 277 | 5.0 | 12.0 | 0.00 | 0.21 | 0.21 | 79 | 1016.9 |
| 20260906225025 | 59 | 258 | 6.0 | 12.0 | 0.00 | 0.21 | 0.21 | 79 | 1016.9 |
| 20260906224526 | 59 | 231 | 6.0 | 15.0 | 0.00 | 0.21 | 0.21 | 79 | 1016.9 |
| 20260906224024 | 59 | 252 | 8.0 | 15.0 | 0.00 | 0.21 | 0.21 | 80 | 1016.8 |
| 20260906223528 | 59 | 272 | 9.0 | 13.0 | 0.00 | 0.21 | 0.21 | 80 | 1016.8 |
| 20260906223024 | 60 | 248 | 8.0 | 12.0 | 0.00 | 0.21 | 0.21 | 80 | 1016.8 |
| 20260906222525 | 60 | 242 | 7.0 | 12.0 | 0.00 | 0.21 | 0.21 | 80 | 1016.9 |
| 20260906222024 | 60 | 240 | 7.0 | 11.0 | 0.00 | 0.21 | 0.21 | 80 | 1016.9 |
| 20260906221524 | 60 | 244 | 8.0 | 11.0 | 0.00 | 0.21 | 0.21 | 80 | 1016.8 |
| 20260906221024 | 60 | 242 | 6.0 | 13.0 | 0.00 | 0.21 | 0.21 | 81 | 1016.8 |
| 20260906220526 | 59 | 253 | 7.0 | 13.0 | 0.00 | 0.21 | 0.21 | 80 | 1016.8 |
| 20260906220023 | 59 | 247 | 5.0 | 11.0 | 0.00 | 0.21 | 0.21 | 81 | 1016.9 |
| 20260906215523 | 59 | 246 | 6.0 | 11.0 | 0.00 | 0.21 | 0.21 | 81 | 1017.0 |
| 20260906215023 | 59 | 248 | 5.0 | 10.0 | 0.00 | 0.21 | 0.21 | 81 | 1016.9 |
| 20260906214522 | 59 | 253 | 6.0 | 10.0 | 0.00 | 0.21 | 0.21 | 82 | 1017.0 |
| 20260906214022 | 60 | 237 | 5.0 | 7.0 | 0.00 | 0.21 | 0.21 | 84 | 1016.9 |
| 20260906213522 | 59 | 181 | 2.0 | 4.0 | 0.00 | 0.21 | 0.21 | 83 | 1017.0 |
| 20260906213022 | 58 | 148 | 1.0 | 4.0 | 0.00 | 0.21 | 0.21 | 81 | 1017.0 |
| 20260906212522 | 59 | 108 | 1.0 | 3.0 | 0.00 | 0.21 | 0.21 | 81 | 1016.9 |
| 20260906212022 | 59 | 108 | 1.0 | 3.0 | 0.00 | 0.21 | 0.21 | 83 | 1017.0 |
| 20260906211521 | 58 | 104 | 1.0 | 3.0 | 0.00 | 0.21 | 0.21 | 83 | 1017.0 |
| 20260906211023 | 58 | 104 | 1.0 | 3.0 | 0.00 | 0.21 | 0.21 | 82 | 1017.0 |
| 20260906210521 | 60 | 103 | 0.0 | 3.0 | 0.00 | 0.21 | 0.21 | 85 | 1017.0 |
| 20260906210022 | 59 | 103 | 1.0 | 3.0 | 0.00 | 0.21 | 0.21 | 84 | 1017.0 |
| 20260906205518 | 58 | 69 | 0.0 | 2.0 | 0.00 | 0.21 | 0.21 | 84 | 1017.0 |
| 20260906205016 | 58 | 69 | 0.0 | 2.0 | 0.00 | 0.21 | 0.21 | 85 | 1017.0 |
| 20260906204516 | 58 | 69 | 0.0 | 2.0 | 0.00 | 0.21 | 0.21 | 85 | 1017.0 |
| 20260906204014 | 57 | 69 | 0.0 | 1.0 | 0.00 | 0.21 | 0.21 | 84 | 1017.0 |
| 20260906203515 | 57 | 69 | 0.0 | 1.0 | 0.00 | 0.21 | 0.21 | 84 | 1017.0 |
| 20260906203015 | 57 | 69 | 0.0 | 0.0 | 0.00 | 0.21 | 0.21 | 84 | 1017.0 |
| 20260906202513 | 57 | 69 | 0.0 | 0.0 | 0.00 | 0.21 | 0.21 | 84 | 1016.9 |
| 20260906202015 | 56 | 69 | 0.0 | 0.0 | 0.00 | 0.21 | 0.21 | 83 | 1016.9 |
| 20260906201514 | 56 | 69 | 0.0 | 0.0 | 0.00 | 0.21 | 0.21 | 84 | 1017.0 |
| 20260906201013 | 56 | 69 | 0.0 | 0.0 | 0.00 | 0.21 | 0.21 | 83 | 1017.0 |
| 20260906200513 | 56 | 69 | 0.0 | 1.0 | 0.00 | 0.21 | 0.21 | 84 | 1017.0 |
| 20260906200014 | 56 | 69 | 0.0 | 2.0 | 0.00 | 0.21 | 0.21 | 84 | 1017.0 |
| 20260906195513 | 56 | 69 | 0.0 | 2.0 | 0.00 | 0.21 | 0.21 | 84 | 1017.0 |
| 20260906195012 | 57 | 69 | 0.0 | 2.0 | 0.00 | 0.21 | 0.21 | 85 | 1017.0 |
| 20260906194512 | 56 | 69 | 0.0 | 2.0 | 0.00 | 0.21 | 0.21 | 85 | 1017.0 |
| 20260906194012 | 56 | 69 | 0.0 | 0.0 | 0.00 | 0.21 | 0.21 | 84 | 1017.0 |
| 20260906193511 | 56 | 69 | 0.0 | 1.0 | 0.00 | 0.21 | 0.21 | 85 | 1017.0 |
| 20260906193011 | 56 | 69 | 0.0 | 2.0 | 0.00 | 0.21 | 0.21 | 85 | 1017.0 |
| 20260906192512 | 56 | 69 | 0.0 | 2.0 | 0.00 | 0.21 | 0.21 | 85 | 1017.0 |
| 20260906192011 | 55 | 69 | 0.0 | 1.0 | 0.00 | 0.21 | 0.21 | 84 | 1017.0 |
| 20260906191511 | 55 | 69 | 0.0 | 1.0 | 0.00 | 0.21 | 0.21 | 85 | 1017.0 |
| 20260906191009 | 55 | 69 | 0.0 | 2.0 | 0.00 | 0.21 | 0.21 | 85 | 1017.1 |
| 20260906190508 | 56 | 69 | 0.0 | 2.0 | 0.00 | 0.21 | 0.21 | 86 | 1017.1 |
| 20260906190010 | 55 | 69 | 0.0 | 2.0 | 0.00 | 0.21 | 0.21 | 85 | 1017.1 |
| 20260906185505 | 55 | 69 | 0.0 | 2.0 | 0.00 | 0.21 | 0.21 | 85 | 1017.1 |
| 20260906185005 | 55 | 69 | 0.0 | 1.0 | 0.00 | 0.21 | 0.21 | 86 | 1017.1 |
| 20260906184508 | 55 | 69 | 0.0 | 1.0 | 0.00 | 0.21 | 0.21 | 85 | 1017.1 |
| 20260906184004 | 55 | 69 | 0.0 | 1.0 | 0.00 | 0.21 | 0.21 | 85 | 1017.1 |
| 20260906183504 | 54 | 69 | 0.0 | 2.0 | 0.00 | 0.21 | 0.21 | 85 | 1017.1 |
| 20260906183003 | 54 | 69 | 0.0 | 2.0 | 0.00 | 0.21 | 0.21 | 85 | 1017.1 |
| 20260906182503 | 54 | 69 | 0.0 | 1.0 | 0.00 | 0.21 | 0.21 | 85 | 1017.2 |
| 20260906182003 | 54 | 69 | 0.0 | 0.0 | 0.00 | 0.21 | 0.21 | 85 | 1017.2 |
| 20260906181501 | 54 | 69 | 0.0 | 0.0 | 0.00 | 0.21 | 0.21 | 85 | 1017.2 |
| 20260906181100 | 53 | 69 | 0.0 | 2.0 | 0.00 | 0.21 | 0.21 | 85 | 1017.2 |
| 20260906180559 | 53 | 69 | 0.0 | 2.0 | 0.00 | 0.21 | 0.21 | 85 | 1017.2 |
| 20260906180111 | 53 | 69 | 0.0 | 1.0 | 0.00 | 0.21 | 0.21 | 85 | 1017.2 |
| 20260906175559 | 54 | 69 | 0.0 | 1.0 | 0.00 | 0.21 | 0.21 | 85 | 1017.1 |
| 20260906175059 | 54 | 69 | 0.0 | 2.0 | 0.00 | 0.21 | 0.21 | 85 | 1017.1 |
| 20260906174606 | 53 | 69 | 0.0 | 2.0 | 0.00 | 0.21 | 0.21 | 85 | 1017.2 |
| 20260906174058 | 53 | 350 | 0.0 | 3.0 | 0.00 | 0.21 | 0.21 | 85 | 1017.2 |
| 20260906173557 | 53 | 350 | 0.0 | 3.0 | 0.00 | 0.21 | 0.21 | 86 | 1017.2 |
| 20260906173057 | 53 | 350 | 0.0 | 3.0 | 0.00 | 0.21 | 0.21 | 85 | 1017.1 |
| 20260906172557 | 53 | 350 | 0.0 | 3.0 | 0.00 | 0.21 | 0.21 | 86 | 1017.1 |
| 20260906172057 | 53 | 352 | 0.0 | 3.0 | 0.00 | 0.21 | 0.21 | 86 | 1017.1 |
| 20260906171556 | 53 | 338 | 0.0 | 3.0 | 0.00 | 0.21 | 0.21 | 86 | 1017.1 |
| 20260906171057 | 52 | 337 | 0.0 | 2.0 | 0.00 | 0.21 | 0.21 | 86 | 1017.1 |
| 20260906170558 | 52 | 337 | 0.0 | 2.0 | 0.00 | 0.21 | 0.21 | 86 | 1017.1 |
| 20260906170056 | 52 | 337 | 0.0 | 3.0 | 0.01 | 0.21 | 0.21 | 86 | 1017.1 |
| 20260906165556 | 52 | 358 | 0.0 | 2.0 | 0.01 | 0.21 | 0.21 | 86 | 1017.1 |
| 20260906165054 | 52 | 358 | 0.0 | 2.0 | 0.03 | 0.21 | 0.21 | 86 | 1017.1 |
| 20260906164555 | 52 | 358 | 0.0 | 2.0 | 0.04 | 0.21 | 0.21 | 86 | 1017.1 |
| 20260906164054 | 52 | 358 | 0.0 | 4.0 | 0.05 | 0.21 | 0.21 | 86 | 1017.1 |
| 20260906163554 | 52 | 358 | 0.0 | 4.0 | 0.06 | 0.21 | 0.21 | 86 | 1017.1 |
| 20260906163053 | 52 | 358 | 0.0 | 2.0 | 0.08 | 0.21 | 0.21 | 86 | 1017.0 |
| 20260906162554 | 51 | 358 | 0.0 | 2.0 | 0.09 | 0.21 | 0.21 | 86 | 1017.0 |
| 20260906162056 | 51 | 358 | 0.0 | 3.0 | 0.09 | 0.21 | 0.21 | 86 | 1017.0 |
| 20260906161556 | 51 | 358 | 0.0 | 3.0 | 0.10 | 0.21 | 0.21 | 86 | 1017.0 |
| 20260906161050 | 51 | 358 | 0.0 | 1.0 | 0.11 | 0.21 | 0.21 | 86 | 1016.9 |
| 20260906160549 | 51 | 358 | 0.0 | 1.0 | 0.12 | 0.21 | 0.21 | 86 | 1017.0 |
| 20260906160049 | 51 | 279 | 0.0 | 0.0 | 0.12 | 0.20 | 0.20 | 86 | 1017.0 |
| 20260906155547 | 51 | 279 | 0.0 | 1.0 | 0.12 | 0.19 | 0.19 | 86 | 1016.9 |
| 20260906155050 | 51 | 279 | 0.0 | 2.0 | 0.12 | 0.18 | 0.18 | 86 | 1017.1 |
| 20260906154554 | 51 | 279 | 0.0 | 1.0 | 0.12 | 0.17 | 0.17 | 85 | 1017.1 |
| 20260906154045 | 51 | 279 | 0.0 | 1.0 | 0.11 | 0.16 | 0.16 | 85 | 1017.0 |
| 20260906153548 | 51 | 279 | 0.0 | 1.0 | 0.11 | 0.15 | 0.15 | 85 | 1017.0 |
| 20260906153052 | 51 | 279 | 0.0 | 1.0 | 0.09 | 0.13 | 0.13 | 85 | 1016.9 |
| 20260906152542 | 51 | 279 | 0.0 | 0.0 | 0.09 | 0.12 | 0.12 | 85 | 1016.9 |
| 20260906152042 | 51 | 279 | 0.0 | 0.0 | 0.08 | 0.11 | 0.11 | 85 | 1016.9 |
| 20260906151543 | 51 | 279 | 0.0 | 0.0 | 0.08 | 0.11 | 0.11 | 85 | 1016.8 |
| 20260906151041 | 51 | 279 | 0.0 | 1.0 | 0.08 | 0.10 | 0.10 | 85 | 1016.7 |
| 20260906150540 | 51 | 279 | 0.0 | 1.0 | 0.07 | 0.09 | 0.09 | 85 | 1016.7 |
| 20260906150053 | 51 | 279 | 0.0 | 1.0 | 0.06 | 0.08 | 0.08 | 85 | 1016.6 |
| 20260906145539 | 51 | 279 | 0.0 | 1.0 | 0.05 | 0.07 | 0.07 | 85 | 1016.6 |
| 20260906145038 | 51 | 279 | 0.0 | 1.0 | 0.04 | 0.06 | 0.06 | 84 | 1016.5 |
| 20260906144537 | 51 | 279 | 0.0 | 1.0 | 0.03 | 0.05 | 0.05 | 84 | 1016.3 |
| 20260906144035 | 51 | 279 | 0.0 | 1.0 | 0.03 | 0.05 | 0.05 | 84 | 1016.3 |
| 20260906143535 | 51 | 279 | 0.0 | 1.0 | 0.02 | 0.04 | 0.04 | 84 | 1016.2 |
| 20260906143035 | 51 | 279 | 0.0 | 1.0 | 0.02 | 0.04 | 0.04 | 84 | 1016.2 |
| 20260906142535 | 52 | 279 | 0.0 | 1.0 | 0.01 | 0.03 | 0.03 | 84 | 1016.1 |
| 20260906142035 | 52 | 279 | 0.0 | 1.0 | 0.01 | 0.03 | 0.03 | 83 | 1016.1 |
| 20260906141534 | 52 | 279 | 0.0 | 2.0 | 0.01 | 0.03 | 0.03 | 83 | 1016.1 |
| 20260906141035 | 52 | 279 | 0.0 | 1.0 | 0.00 | 0.02 | 0.02 | 83 | 1016.1 |
| 20260906140534 | 52 | 279 | 0.0 | 1.0 | 0.00 | 0.02 | 0.02 | 83 | 1016.0 |
| 20260906140037 | 52 | 279 | 0.0 | 1.0 | 0.00 | 0.02 | 0.02 | 82 | 1015.8 |
| 20260906135533 | 52 | 279 | 0.0 | 1.0 | 0.00 | 0.02 | 0.02 | 82 | 1015.8 |
| 20260906135032 | 52 | 279 | 0.0 | 1.0 | 0.00 | 0.02 | 0.02 | 82 | 1015.7 |
| 20260906134532 | 52 | 279 | 0.0 | 1.0 | 0.00 | 0.02 | 0.02 | 81 | 1015.6 |
| 20260906134034 | 52 | 279 | 0.0 | 1.0 | 0.00 | 0.02 | 0.02 | 82 | 1015.6 |
| 20260906133531 | 52 | 279 | 0.0 | 0.0 | 0.00 | 0.02 | 0.02 | 82 | 1015.5 |
| 20260906133032 | 52 | 279 | 0.0 | 0.0 | 0.00 | 0.02 | 0.02 | 82 | 1015.4 |
| 20260906132532 | 52 | 279 | 0.0 | 1.0 | 0.00 | 0.02 | 0.02 | 82 | 1015.5 |
| 20260906132031 | 52 | 279 | 0.0 | 1.0 | 0.00 | 0.02 | 0.02 | 82 | 1015.4 |
| 20260906131531 | 52 | 279 | 0.0 | 1.0 | 0.00 | 0.02 | 0.02 | 82 | 1015.3 |
| 20260906131030 | 52 | 279 | 0.0 | 1.0 | 0.00 | 0.02 | 0.02 | 82 | 1015.3 |
| 20260906130531 | 52 | 279 | 0.0 | 2.0 | 0.00 | 0.02 | 0.02 | 82 | 1015.4 |
| 20260906130044 | 52 | 279 | 0.0 | 2.0 | 0.00 | 0.02 | 0.02 | 82 | 1015.5 |
| 20260906125529 | 52 | 279 | 0.0 | 1.0 | 0.00 | 0.02 | 0.02 | 82 | 1015.5 |
| 20260906125029 | 52 | 279 | 0.0 | 0.0 | 0.00 | 0.02 | 0.02 | 81 | 1015.4 |
| 20260906124529 | 52 | 279 | 0.0 | 0.0 | 0.00 | 0.02 | 0.02 | 81 | 1015.4 |
| 20260906124029 | 52 | 279 | 0.0 | 0.0 | 0.00 | 0.02 | 0.02 | 80 | 1015.4 |
| 20260906123529 | 52 | 279 | 0.0 | 0.0 | 0.00 | 0.02 | 0.02 | 81 | 1015.5 |
| 20260906123037 | 52 | 279 | 0.0 | 0.0 | 0.00 | 0.02 | 0.02 | 81 | 1015.6 |
| 20260906122531 | 52 | 279 | 0.0 | 0.0 | 0.00 | 0.02 | 0.02 | 81 | 1015.6 |
| 20260906122027 | 52 | 279 | 0.0 | 0.0 | 0.00 | 0.02 | 0.02 | 81 | 1015.6 |
| 20260906121528 | 52 | 279 | 0.0 | 0.0 | 0.00 | 0.02 | 0.02 | 81 | 1015.6 |
| 20260906121028 | 52 | 279 | 0.0 | 0.0 | 0.00 | 0.02 | 0.02 | 82 | 1015.6 |
| 20260906120526 | 52 | 279 | 0.0 | 0.0 | 0.00 | 0.02 | 0.02 | 82 | 1015.6 |
| 20260906120026 | 52 | 279 | 0.0 | 0.0 | 0.00 | 0.02 | 0.02 | 82 | 1015.6 |
| 20260906115526 | 52 | 279 | 0.0 | 0.0 | 0.00 | 0.02 | 0.02 | 82 | 1015.6 |
| 20260906115025 | 52 | 279 | 0.0 | 0.0 | 0.00 | 0.02 | 0.02 | 83 | 1015.7 |
| 20260906114528 | 52 | 279 | 0.0 | 0.0 | 0.00 | 0.02 | 0.02 | 83 | 1015.7 |
| 20260906114025 | 53 | 279 | 0.0 | 0.0 | 0.00 | 0.02 | 0.02 | 84 | 1015.8 |
| 20260906113524 | 53 | 279 | 0.0 | 0.0 | 0.01 | 0.02 | 0.02 | 83 | 1015.8 |
| 20260906113025 | 53 | 279 | 0.0 | 3.0 | 0.01 | 0.02 | 0.02 | 83 | 1015.8 |
| 20260906112525 | 53 | 279 | 1.0 | 3.0 | 0.01 | 0.02 | 0.02 | 83 | 1015.7 |
| 20260906112025 | 53 | 329 | 0.0 | 0.0 | 0.01 | 0.02 | 0.02 | 82 | 1015.7 |
| 20260906111523 | 53 | 329 | 0.0 | 1.0 | 0.01 | 0.02 | 0.02 | 81 | 1015.7 |
| 20260906111024 | 53 | 329 | 0.0 | 5.0 | 0.01 | 0.02 | 0.02 | 82 | 1015.7 |
| 20260906110524 | 53 | 338 | 2.0 | 5.0 | 0.01 | 0.02 | 0.02 | 82 | 1015.7 |
| 20260906110024 | 52 | 359 | 1.0 | 4.0 | 0.01 | 0.02 | 0.02 | 82 | 1015.7 |
| 20260906105522 | 52 | 359 | 0.0 | 4.0 | 0.01 | 0.02 | 0.02 | 83 | 1015.8 |
| 20260906105026 | 52 | 56 | 0.0 | 1.0 | 0.01 | 0.02 | 0.02 | 82 | 1016.0 |
| 20260906104537 | 52 | 56 | 0.0 | 1.0 | 0.01 | 0.02 | 0.02 | 83 | 1016.0 |
| 20260906104022 | 52 | 56 | 0.0 | 1.0 | 0.01 | 0.02 | 0.02 | 82 | 1015.9 |
| 20260906103522 | 52 | 56 | 0.0 | 1.0 | 0.01 | 0.01 | 0.01 | 82 | 1016.0 |
| 20260906103040 | 52 | 56 | 0.0 | 0.0 | 0.01 | 0.01 | 0.01 | 82 | 1016.1 |
| 20260906102522 | 52 | 56 | 0.0 | 1.0 | 0.01 | 0.01 | 0.01 | 82 | 1016.2 |
| 20260906102021 | 52 | 56 | 0.0 | 1.0 | 0.01 | 0.01 | 0.01 | 82 | 1016.2 |
| 20260906101522 | 52 | 56 | 0.0 | 3.0 | 0.01 | 0.01 | 0.01 | 82 | 1016.2 |
| 20260906101025 | 52 | 58 | 0.0 | 6.0 | 0.01 | 0.01 | 0.01 | 82 | 1016.3 |
| 20260906100521 | 52 | 45 | 1.0 | 6.0 | 0.01 | 0.01 | 0.01 | 82 | 1016.3 |
| 20260906100027 | 52 | 46 | 0.0 | 1.0 | 0.01 | 0.01 | 0.01 | 82 | 1016.1 |
| 20260906095521 | 52 | 46 | 0.0 | 2.0 | 0.01 | 0.01 | 0.01 | 82 | 1016.1 |
| 20260906095023 | 52 | 46 | 0.0 | 2.0 | 0.01 | 0.01 | 0.01 | 81 | 1016.2 |
| 20260906094520 | 52 | 46 | 1.0 | 2.0 | 0.01 | 0.01 | 0.01 | 81 | 1016.2 |
| 20260906094019 | 52 | 46 | 1.0 | 2.0 | 0.01 | 0.01 | 0.01 | 81 | 1016.3 |
| 20260906093519 | 52 | 53 | 0.0 | 6.0 | 0.00 | 0.00 | 0.00 | 80 | 1016.3 |
| 20260906093029 | 52 | 53 | 1.0 | 6.0 | 0.00 | 0.00 | 0.00 | 80 | 1016.3 |
| 20260906092518 | 53 | 212 | 0.0 | 4.0 | 0.00 | 0.00 | 0.00 | 80 | 1016.2 |
| 20260906092018 | 53 | 212 | 1.0 | 4.0 | 0.00 | 0.00 | 0.00 | 80 | 1016.2 |
| 20260906091522 | 53 | 212 | 0.0 | 2.0 | 0.00 | 0.00 | 0.00 | 79 | 1016.0 |
| 20260906091016 | 53 | 212 | 0.0 | 2.0 | 0.00 | 0.00 | 0.00 | 78 | 1015.9 |
| 20260906090516 | 53 | 212 | 0.0 | 1.0 | 0.00 | 0.00 | 0.00 | 78 | 1015.9 |
| 20260906090017 | 53 | 212 | 0.0 | 1.0 | 0.00 | 0.00 | 0.00 | 77 | 1015.9 |
| 20260906085617 | 53 | 212 | 0.0 | 1.0 | 0.00 | 0.00 | 0.00 | 77 | 1016.0 |
| 20260906085014 | 53 | 212 | 0.0 | 1.0 | 0.00 | 0.00 | 0.00 | 77 | 1016.0 |
| 20260906084514 | 53 | 212 | 0.0 | 1.0 | 0.00 | 0.00 | 0.00 | 77 | 1016.0 |
| 20260906084014 | 53 | 212 | 0.0 | 1.0 | 0.00 | 0.00 | 0.00 | 77 | 1016.1 |
| 20260906083514 | 53 | 212 | 0.0 | 1.0 | 0.00 | 0.00 | 0.00 | 76 | 1016.1 |
| 20260906083014 | 54 | 212 | 0.0 | 2.0 | 0.00 | 0.00 | 0.00 | 75 | 1016.0 |
| 20260906082514 | 54 | 212 | 1.0 | 2.0 | 0.00 | 0.00 | 0.00 | 76 | 1016.1 |
| 20260906082014 | 53 | 212 | 0.0 | 2.0 | 0.00 | 0.00 | 0.00 | 76 | 1016.0 |
| 20260906081516 | 53 | 212 | 0.0 | 1.0 | 0.00 | 0.00 | 0.00 | 76 | 1015.9 |
| 20260906081015 | 53 | 212 | 0.0 | 2.0 | 0.00 | 0.00 | 0.00 | 76 | 1015.8 |
| 20260906080514 | 54 | 212 | 0.0 | 2.0 | 0.00 | 0.00 | 0.00 | 76 | 1015.8 |
| 20260906080014 | 54 | 214 | 0.0 | 1.0 | 0.00 | 0.00 | 0.00 | 76 | 1015.8 |
| 20260906075513 | 54 | 214 | 0.0 | 1.0 | 0.00 | 0.00 | 0.00 | 76 | 1016.0 |
| 20260906075013 | 54 | 214 | 0.0 | 0.0 | 0.00 | 0.00 | 0.00 | 76 | 1015.8 |
| 20260906074512 | 54 | 214 | 0.0 | 1.0 | 0.00 | 0.00 | 0.00 | 76 | 1015.7 |
| 20260906074010 | 54 | 214 | 0.0 | 2.0 | 0.00 | 0.00 | 0.00 | 77 | 1015.8 |
| 20260906073510 | 53 | 214 | 0.0 | 3.0 | 0.00 | 0.00 | 0.00 | 78 | 1015.7 |
| 20260906073010 | 53 | 214 | 0.0 | 3.0 | 0.00 | 0.00 | 0.00 | 78 | 1015.8 |
| 20260906072510 | 53 | 214 | 0.0 | 1.0 | 0.00 | 0.00 | 0.00 | 78 | 1015.8 |
| 20260906072008 | 53 | 214 | 0.0 | 0.0 | 0.00 | 0.00 | 0.00 | 78 | 1015.9 |
| 20260906071508 | 53 | 214 | 0.0 | 0.0 | 0.00 | 0.00 | 0.00 | 78 | 1016.0 |
| 20260906071008 | 53 | 214 | 0.0 | 0.0 | 0.00 | 0.00 | 0.00 | 78 | 1016.1 |
| 20260906070507 | 53 | 214 | 0.0 | 1.0 | 0.00 | 0.00 | 0.00 | 78 | 1016.1 |
| 20260906070017 | 53 | 214 | 0.0 | 2.0 | 0.00 | 0.00 | 0.00 | 78 | 1016.1 |
| 20260906065510 | 53 | 214 | 0.0 | 2.0 | 0.00 | 0.00 | 0.00 | 78 | 1016.1 |
| 20260906065006 | 53 | 214 | 0.0 | 2.0 | 0.00 | 0.00 | 0.00 | 78 | 1016.2 |
| 20260906064505 | 53 | 214 | 0.0 | 2.0 | 0.00 | 0.00 | 0.00 | 78 | 1016.3 |
| 20260906064009 | 53 | 214 | 0.0 | 2.0 | 0.00 | 0.00 | 0.00 | 77 | 1016.3 |
| 20260906063505 | 53 | 214 | 0.0 | 1.0 | 0.00 | 0.00 | 0.00 | 77 | 1016.3 |
| 20260906063006 | 54 | 214 | 0.0 | 1.0 | 0.00 | 0.00 | 0.00 | 77 | 1016.3 |
| 20260906062505 | 54 | 214 | 0.0 | 1.0 | 0.00 | 0.00 | 0.00 | 76 | 1016.3 |
| 20260906062005 | 54 | 214 | 0.0 | 1.0 | 0.00 | 0.00 | 0.00 | 76 | 1016.3 |
| 20260906061509 | 54 | 214 | 0.0 | 1.0 | 0.00 | 0.00 | 0.00 | 76 | 1016.3 |
| 20260906061005 | 54 | 214 | 0.0 | 2.0 | 0.00 | 0.00 | 0.00 | 75 | 1016.3 |
| 20260906060504 | 54 | 214 | 0.0 | 1.0 | 0.00 | 0.00 | 0.00 | 75 | 1016.3 |
| 20260906060005 | 55 | 214 | 0.0 | 2.0 | 0.00 | 0.00 | 0.00 | 75 | 1016.3 |
| 20260906055504 | 55 | 214 | 0.0 | 2.0 | 0.00 | 0.00 | 0.00 | 75 | 1016.3 |
| 20260906055004 | 55 | 214 | 0.0 | 2.0 | 0.00 | 0.00 | 0.00 | 75 | 1016.3 |
| 20260906054503 | 55 | 214 | 0.0 | 1.0 | 0.00 | 0.00 | 0.00 | 75 | 1016.3 |
| 20260906054004 | 55 | 214 | 0.0 | 1.0 | 0.00 | 0.00 | 0.00 | 75 | 1016.3 |
| 20260906053504 | 55 | 214 | 0.0 | 2.0 | 0.00 | 0.00 | 0.00 | 75 | 1016.4 |
| 20260906053005 | 55 | 214 | 0.0 | 2.0 | 0.00 | 0.00 | 0.00 | 74 | 1016.4 |
| 20260906052504 | 55 | 214 | 0.0 | 2.0 | 0.00 | 0.00 | 0.00 | 74 | 1016.5 |
| 20260906052004 | 55 | 214 | 0.0 | 2.0 | 0.00 | 0.00 | 0.00 | 74 | 1016.4 |
| 20260906051503 | 55 | 214 | 1.0 | 2.0 | 0.00 | 0.00 | 0.00 | 74 | 1016.4 |
| 20260906051004 | 55 | 214 | 0.0 | 3.0 | 0.00 | 0.00 | 0.00 | 74 | 1016.4 |
| 20260906050503 | 55 | 214 | 0.0 | 3.0 | 0.00 | 0.00 | 0.00 | 75 | 1016.4 |
| 20260906050003 | 55 | 214 | 1.0 | 3.0 | 0.00 | 0.00 | 0.00 | 74 | 1016.5 |
| 20260906045505 | 55 | 214 | 0.0 | 2.0 | 0.00 | 0.00 | 0.00 | 74 | 1016.5 |
| 20260906045002 | 55 | 214 | 0.0 | 2.0 | 0.00 | 0.00 | 0.00 | 73 | 1016.5 |
| 20260906044502 | 56 | 214 | 0.0 | 2.0 | 0.00 | 0.00 | 0.00 | 73 | 1016.4 |
| 20260906044003 | 56 | 214 | 1.0 | 2.0 | 0.00 | 0.00 | 0.00 | 73 | 1016.5 |
| 20260906043504 | 56 | 214 | 0.0 | 2.0 | 0.00 | 0.00 | 0.00 | 72 | 1016.4 |
| 20260906043002 | 56 | 214 | 0.0 | 2.0 | 0.00 | 0.00 | 0.00 | 73 | 1016.4 |
| 20260906042501 | 56 | 214 | 1.0 | 2.0 | 0.00 | 0.00 | 0.00 | 73 | 1016.4 |
| 20260906042001 | 56 | 214 | 0.0 | 2.0 | 0.00 | 0.00 | 0.00 | 73 | 1016.4 |
| 20260906041502 | 56 | 214 | 0.0 | 2.0 | 0.00 | 0.00 | 0.00 | 72 | 1016.4 |
| 20260906041003 | 56 | 214 | 0.0 | 1.0 | 0.00 | 0.00 | 0.00 | 72 | 1016.4 |
| 20260906040505 | 56 | 214 | 0.0 | 2.0 | 0.00 | 0.00 | 0.00 | 73 | 1016.3 |
| 20260906040002 | 56 | 214 | 0.0 | 2.0 | 0.00 | 0.00 | 0.00 | 72 | 1016.3 |
| 20260906035501 | 56 | 214 | 0.0 | 2.0 | 0.00 | 0.00 | 0.00 | 72 | 1016.3 |
| 20260906035003 | 56 | 214 | 1.0 | 2.0 | 0.00 | 0.00 | 0.00 | 72 | 1016.2 |
| 20260906034602 | 56 | 214 | 0.0 | 2.0 | 0.00 | 0.00 | 0.00 | 72 | 1016.1 |
| 20260906034101 | 57 | 214 | 1.0 | 2.0 | 0.00 | 0.00 | 0.00 | 72 | 1016.1 |
| 20260906033600 | 57 | 214 | 1.0 | 2.0 | 0.00 | 0.00 | 0.00 | 71 | 1016.2 |
| 20260906033122 | 57 | 214 | 0.0 | 2.0 | 0.00 | 0.00 | 0.00 | 71 | 1016.0 |
| 20260906032559 | 57 | 214 | 1.0 | 2.0 | 0.00 | 0.00 | 0.00 | 71 | 1015.9 |
| 20260906032100 | 57 | 214 | 1.0 | 2.0 | 0.00 | 0.00 | 0.00 | 71 | 1015.7 |
| 20260906031614 | 57 | 214 | 1.0 | 2.0 | 0.00 | 0.00 | 0.00 | 70 | 1015.7 |
| 20260906031100 | 57 | 214 | 1.0 | 2.0 | 0.00 | 0.00 | 0.00 | 70 | 1015.6 |
| 20260906030600 | 58 | 214 | 1.0 | 2.0 | 0.00 | 0.00 | 0.00 | 70 | 1015.6 |
| 20260906030059 | 58 | 214 | 0.0 | 1.0 | 0.00 | 0.00 | 0.00 | 70 | 1015.6 |
| 20260906025559 | 58 | 214 | 0.0 | 1.0 | 0.00 | 0.00 | 0.00 | 70 | 1015.6 |
| 20260906025059 | 59 | 214 | 0.0 | 2.0 | 0.00 | 0.00 | 0.00 | 69 | 1015.6 |
| 20260906024606 | 59 | 214 | 0.0 | 2.0 | 0.00 | 0.00 | 0.00 | 68 | 1015.6 |
| 20260906024059 | 59 | 214 | 0.0 | 2.0 | 0.00 | 0.00 | 0.00 | 69 | 1015.5 |
| 20260906023602 | 60 | 214 | 0.0 | 2.0 | 0.00 | 0.00 | 0.00 | 68 | 1015.5 |
| 20260906023103 | 60 | 214 | 0.0 | 1.0 | 0.00 | 0.00 | 0.00 | 68 | 1015.4 |
| 20260906022559 | 60 | 214 | 0.0 | 3.0 | 0.00 | 0.00 | 0.00 | 67 | 1015.4 |
| 20260906022103 | 61 | 214 | 0.0 | 3.0 | 0.00 | 0.00 | 0.00 | 67 | 1015.5 |
| 20260906021604 | 61 | 214 | 0.0 | 2.0 | 0.00 | 0.00 | 0.00 | 66 | 1015.5 |
| 20260906021058 | 62 | 214 | 0.0 | 2.0 | 0.00 | 0.00 | 0.00 | 64 | 1015.5 |
| 20260906020558 | 62 | 214 | 0.0 | 2.0 | 0.00 | 0.00 | 0.00 | 63 | 1015.4 |
| 20260906020058 | 62 | 214 | 0.0 | 0.0 | 0.00 | 0.00 | 0.00 | 63 | 1015.3 |
| 20260906015556 | 63 | 214 | 0.0 | 0.0 | 0.00 | 0.00 | 0.00 | 62 | 1015.5 |
| 20260906015056 | 63 | 214 | 0.0 | 1.0 | 0.00 | 0.00 | 0.00 | 59 | 1015.4 |
| 20260906014557 | 64 | 214 | 0.0 | 1.0 | 0.00 | 0.00 | 0.00 | 59 | 1015.4 |
| 20260906014055 | 65 | 214 | 0.0 | 1.0 | 0.00 | 0.00 | 0.00 | 58 | 1015.5 |
| 20260906013600 | 65 | 213 | 0.0 | 3.0 | 0.00 | 0.00 | 0.00 | 54 | 1015.6 |
| 20260906013104 | 65 | 214 | 1.0 | 4.0 | 0.00 | 0.00 | 0.00 | 58 | 1015.6 |
| 20260906012555 | 65 | 214 | 1.0 | 4.0 | 0.00 | 0.00 | 0.00 | 58 | 1015.6 |
| 20260906012055 | 65 | 214 | 1.0 | 2.0 | 0.00 | 0.00 | 0.00 | 58 | 1015.6 |
| 20260906011555 | 65 | 214 | 0.0 | 1.0 | 0.00 | 0.00 | 0.00 | 55 | 1015.6 |
| 20260906011058 | 65 | 214 | 0.0 | 1.0 | 0.00 | 0.00 | 0.00 | 54 | 1015.6 |
| 20260906010554 | 65 | 214 | 0.0 | 2.0 | 0.00 | 0.00 | 0.00 | 55 | 1015.6 |
| 20260906010054 | 66 | 214 | 0.0 | 3.0 | 0.00 | 0.00 | 0.00 | 56 | 1015.7 |
| 20260906005557 | 66 | 214 | 1.0 | 3.0 | 0.00 | 0.00 | 0.00 | 56 | 1015.8 |
| 20260906005053 | 67 | 214 | 0.0 | 5.0 | 0.00 | 0.00 | 0.00 | 55 | 1015.8 |
| 20260906004553 | 66 | 242 | 1.0 | 8.0 | 0.00 | 0.00 | 0.00 | 58 | 1016.0 |
| 20260906004052 | 67 | 265 | 1.0 | 8.0 | 0.00 | 0.00 | 0.00 | 57 | 1015.9 |
| 20260906003552 | 68 | 181 | 2.0 | 6.0 | 0.00 | 0.00 | 0.00 | 58 | 1015.8 |
| 20260906003053 | 69 | 152 | 2.0 | 7.0 | 0.00 | 0.00 | 0.00 | 56 | 1015.9 |
| 20260906002552 | 70 | 157 | 2.0 | 8.0 | 0.00 | 0.00 | 0.00 | 54 | 1016.0 |
| 20260906002056 | 70 | 169 | 5.0 | 8.0 | 0.00 | 0.00 | 0.00 | 56 | 1016.1 |
| 20260906001552 | 67 | 180 | 2.0 | 6.0 | 0.00 | 0.00 | 0.00 | 59 | 1016.2 |
| 20260906001052 | 66 | 177 | 2.0 | 11.0 | 0.00 | 0.00 | 0.00 | 59 | 1016.2 |
| 20260906000556 | 66 | 215 | 6.0 | 11.0 | 0.00 | 0.00 | 0.00 | 57 | 1016.1 |
| 20260906000059 | 66 | 240 | 3.0 | 5.0 | 0.00 | 0.00 | 0.00 | 55 | 1016.1 |
| 20260905235552 | 66 | 37 | 0.0 | 2.0 | 0.00 | 0.00 | 0.00 | 54 | 1016.0 |